Location: Unspecified
(51.0950°N, 12.9690°E)
Time: 03:16:53
(UTC+00:00)

AO-85 - Visible Passes

Search period start: 16 April 2024 00:00
Search period end: 26 April 2024 00:00
Orbit: 516 x 753 km, 64.8° (Epoch: 04 January)

Date Brightness Start Highest point End Pass type
(mag) Time Alt. Az. Time Alt. Az. Time Alt. Az.
16 Apr ? 00:45:47 76° N 00:45:47 76° N 00:50:09 10° NE visible
16 Apr ? 02:22:59 12° WNW 02:26:15 24° NNW 02:30:04 10° NNE visible
16 Apr ? 23:26:38 22° ENE 23:26:38 22° ENE 23:28:38 10° NE visible
17 Apr ? 01:03:50 44° WNW 01:04:28 47° NW 01:09:00 10° NE visible
17 Apr ? 02:42:21 10° WNW 02:45:36 19° NNW 02:48:59 10° NNE visible
17 Apr ? 23:44:38 40° ENE 23:44:38 40° ENE 23:47:46 10° NE visible
18 Apr ? 01:21:50 24° WNW 01:23:34 31° NNW 01:27:47 10° NNE visible
18 Apr ? 03:02:03 10° NW 03:05:01 16° N 03:08:04 10° NNE visible
18 Apr ? 22:25:24 11° ENE 22:25:24 11° ENE 22:25:41 10° ENE visible
19 Apr ? 00:02:36 64° N 00:02:36 64° N 00:06:41 10° NE visible
19 Apr ? 01:39:48 13° WNW 01:42:48 23° NNW 01:46:36 10° NNE visible
19 Apr ? 03:21:35 10° NW 03:24:28 16° N 03:27:26 10° NE visible
19 Apr ? 22:43:19 21° ENE 22:43:19 21° ENE 22:45:11 10° NE visible
20 Apr ? 00:20:30 43° WNW 00:20:59 45° NW 00:25:30 10° NE visible
20 Apr ? 01:58:56 10° WNW 02:02:09 18° NNW 02:05:30 10° NNE visible
20 Apr ? 23:01:10 40° ENE 23:01:10 40° ENE 23:04:16 10° NE visible
21 Apr ? 00:38:21 23° WNW 00:40:05 30° NNW 00:44:15 10° NNE visible
21 Apr ? 02:18:37 10° NW 02:21:33 16° N 02:24:35 10° NNE visible
21 Apr ? 21:41:46 12° ENE 21:41:46 12° ENE 21:42:16 10° ENE visible
21 Apr ? 23:18:58 63° N 23:18:58 63° N 23:23:08 10° NE visible
22 Apr ? 00:56:08 12° WNW 00:59:19 22° NNW 01:03:03 10° NNE visible
22 Apr ? 02:38:04 10° NW 02:40:59 16° N 02:43:59 10° NE visible
22 Apr ? 21:59:29 24° ENE 21:59:29 24° ENE 22:01:40 10° NE visible
22 Apr ? 23:36:39 38° WNW 23:37:25 42° NW 23:41:55 10° NE visible
23 Apr ? 01:15:28 10° WNW 01:18:38 18° NNW 01:21:57 10° NNE visible
23 Apr ? 02:57:14 10° NNW 03:00:24 17° N 03:03:39 10° NE visible
23 Apr ? 22:17:06 51° ENE 22:17:06 51° ENE 22:20:41 10° NE visible
23 Apr ? 23:54:16 19° WNW 23:56:32 29° NNW 00:00:39 10° NNE visible
24 Apr ? 01:35:06 10° NW 01:38:02 16° N 01:41:03 10° NNE visible
24 Apr ? 03:16:09 10° NNW 03:19:45 20° NNE 03:23:27 10° ENE visible
24 Apr ? 20:57:25 16° ENE 20:57:25 16° ENE 20:58:46 10° ENE visible
24 Apr ? 22:34:34 63° WNW 22:34:52 65° NW 22:39:32 10° NE visible
25 Apr ? 00:12:14 10° WNW 00:15:46 21° NNW 00:19:27 10° NNE visible
25 Apr ? 01:54:30 10° NW 01:57:27 16° N 02:00:28 10° NE visible
25 Apr ? 21:14:44 36° E 21:14:44 36° E 21:18:05 10° NE visible
25 Apr ? 22:51:53 26° W 22:53:49 40° NW 22:58:16 10° NNE visible
